369  
ASUS46 KSGX 191911  
RWRSGX  
SAN DIEGO HOURLY WEATHER ROUNDUP  
NATIONAL WEATHER SERVICE SAN DIEGO CA  
1200 PM PDT THU OCT 19 2017  
 
NOTE: "FAIR" INDICATES FEW OR NO CLOUDS BELOW 12,000 FEET WITH NO  
SIGNIFICANT WEATHER AND/OR S TO VISIBILITY
.  
 
CAZ042-043-060-061-PZZ750-775-192000-  
 
GREATER SAN DIEGO AREA  
 
CITY SKY/WX TMP DP RH WIND PRES REMARKS
 
SAN DIEGO AP PTSUNNY 69 62 78 S7 29.94F  
NATIONAL CITY N/A 71 65 80 CALM 29.95F  
CHULA VISTA N/A 73 65 76 W8 29.85S  
IMPERIAL BEACH PTSUNNY 71 61 70 SW9 29.93F  
BROWN FIELD FAIR 74 61 63 VRB7G16 29.93F  
MIRAMAR MCAS PTSUNNY 78 60 53 S6 29.92F  
MONTGOMERY FLD FAIR 74 59 59 VRB3 29.93F  
 

 
 
NORTH SAN DIEGO COUNTY  
 
CITY SKY/WX TMP DP RH WIND PRES REMARKS
 
CAMP PENDLETON PTSUNNY 71 60 68 SW9 29.91F  
OCEANSIDE AP FAIR 73 61 65 SW8 29.91F  
OCEANSIDE HBR N/A 69 63 80 E5 29.94S  
VISTA N/A 71 62 72 SW2 29.89F  
CARLSBAD FAIR 71 61 70 CALM 29.92S  
DEL MAR N/A 70 64 81 W2 29.94S  
LA JOLLA SCRIP N/A 69 63 81 S1 29.92S  
FALLBROOK N/A 73 64 72 SW5 29.93F  
ESCONDIDO N/A 74 62 65 SW2 29.92F  
SAN MARCOS N/A 71 61 71 W6 29.93F  
POWAY N/A 74 61 61 CALM 29.93F  
 

 
 
EAST SAN DIEGO COUNTY  
 
CITY SKY/WX TMP DP RH WIND PRES REMARKS
 
RAMONA FAIR 76 46 34 SW6 29.94F  
SANTEE LAKES N/A 74 61 63 CALM 29.90F  
LA MESA N/A 70 61 71 SW5 29.86F  
JAMUL N/A 74 58 57 CALM 29.91F  
DESCANSO N N/A 71 36 27 W5 29.83F  
CAMPO N/A 78 30 17 SW12 29.93F  
 

 
 
ORANGE COUNTY AND THE LOS ANGELES BASIN  
 
CITY SKY/WX TMP DP RH WIND PRES REMARKS
 
JOHN WAYNE AP PTSUNNY 73 60 63 S7 29.92S  
LAGUNA BEACH N/A 73 64 73 S6 29.87S  
LAKE FOREST FR N/A 71 57 60 W3 29.80F  
HUNTINGTON BCH N/A 72 65 79 S3 29.93S  
LOS ALAMITOS CLOUDY 74 62 65 SW9 29.92S  
FULLERTON FAIR 76 60 57 VRB5 29.91S  
LONG BEACH FAIR 73 61 65 S6 29.92S  
L.A. AP PTSUNNY 71 62 73 W9 29.93R  
L.A. DOWNTOWN FAIR 77 59 53 CALM 29.91S  
 

 
 
THE INLAND EMPIRE  
 
CITY SKY/WX TMP DP RH WIND PRES REMARKS
 
CORONA FAIR 75 58 55 W3 29.91F  
CHINO FAIR 78 55 44 CALM 29.92F  
ONTARIO PTSUNNY 74 55 51 VRB6 29.92F HAZE  
RIVERSIDE AP FAIR 73 57 57 W6 29.91F  
MORENO VALLEY N/A 76 55 46 SE3 28.04S  
MARCH ARB FAIR 75 53 45 SW3 29.92F  
HORSETHIEF CYN N/A 73 50 43 NE2 29.90F  
PERRIS N/A 76 57 50 SW2 N/A  
HEMET EAST N/A 73 48 41 SW2 29.94S  
FRENCH VALLEY FAIR 72 52 49 SW9 29.93F  
TEMECULA N/A 72 59 62 SW7 29.96F  
 

 
 
SAN BERNARDINO AND RIVERSIDE COUNTY MOUNTAINS  
 
CITY SKY/WX TMP DP RH WIND PRES REMARKS
 
BIG BEAR AP FAIR 64 28 25 W5 30.12S  
ANGELUS OAKS N/A 65 40 41 CALM 29.78S  
 

 
 
SOUTHERN DESERT INCLUDING THE COACHELLA VALLEY  
 
CITY SKY/WX TMP DP RH WIND PRES REMARKS
 
PALM SPRINGS FAIR 93 44 18 NW7 29.79F  
THOUSAND PALMS N/A 91 47 21 W3 29.75S  
PALM DESERT N/A 94 50 22 CALM N/A  
THERMAL FAIR 91 48 22 VRB3 29.74F  
BLYTHE FAIR 88 32 13 VRB3 29.79F  
IMPERIAL AP FAIR 92 33 12 S6 29.77F  
EL CENTRO NAS PTSUNNY 91 36 14 S8 29.78F  
YUMA AZ FAIR 91 36 14 W7 29.79F  
MEXICALI MOSUNNY 90 37 15 E7 29.79F  
 

 
 
UPPER DESERT  
 
CITY SKY/WX TMP DP RH WIND PRES REMARKS
 
VICTORVILLE AP FAIR 79 19 11 W14G20 29.95F  
HESPERIA N/A 83 43 24 SW5 29.95F  
PALMDALE FAIR 80 24 12 W20G30 29.95S  
LANCASTER FAIR 79 23 12 W23G32 29.93F  
EDWARDS AFB MOSUNNY 80 23 12 W17 29.89F  
DAGGETT FAIR 83 24 11 W20G25 29.87F  
29 PALMS N FAIR 85 29 13 NW8 29.93F  
NEEDLES FAIR 86 19 8 VRB3 29.82F  
 

 
 
REGIONAL REPORTS  
 
CITY SKY/WX TMP DP RH WIND PRES REMARKS
 
SANTA BARBARA FAIR 69 59 70 VRB5 29.92S  
SANDBERG FAIR 68 28 22 N13G24 30.07R  
LAS VEGAS NV FAIR 82 22 11 NE5 29.86F  
PHOENIX AZ FAIR 90 40 17 SE7 29.81F  
TIJUANA PTSUNNY 73 59 60 CALM 29.95F  
ENSENADA NW N/A 71 32 24 CALM 29.90F  
 

 
 
OFFSHORE ISLANDS  
 
CITY SKY/WX TMP DP RH WIND PRES REMARKS
 
CATALINA ARPT FAIR 67 58 72 W5 29.98R  
SAN CLEMENTE I PTSUNNY 71 62 73 W17 29.95S  
SAN NICOLAS IS PTSUNNY 66 57 72 NW22 29.95F  
 

 
 
MARINE AND OFFSHORE BUOY REPORTS  
 
STATION/POSITION SKY/WX TEMP WIND PRES VSBY SWELL
 
AIR SEA DIR/SP/G HT/PER/DIR  
(F) (DEG/KT/KT) (MB) (MI) (FT/S/D)  
TANNER BANKS 63 64 310/ 16/ 19 1014.0 5/230/15  
S CLEMENTE BASIN 66 70 290/ 14/ 16 1013.5F 5/200/14  
SAN NICOLAS IS. 63 N/A 3/290/12  
SO. S. ROSA ISLA 60 62 300/ 21/ 23 1013.7F 3/190/15  
W. S. BARBARA CH 58 58 300/ 23/ 27 1013.8F 3/190/15  
M. S. BARBARA CH 63 66 250/ 10/ 14 1013.9F 3/250/11  
S. MONICA BASIN 69 300/ 4/ 6 1013.0F 3/190/16  
S PEDRO CHANNEL 69 N/A 2/180/12  
CMP PENDLETON NS 69 N/A 3/210/15  
OCEANSIDE OFFSHR 70 N/A 3/200/14  
TORREY PINES OTR 69 N/A 2/190/14  
SAN DIEGO BAY 73 1014.0F  
POINT LOMA SOUTH 71 N/A 3/200/15  
 

 
 
 
 
CLICK HERE TO GO TO PREVIOUS BULLETINS.

The Nexlab CA Page Main Text Page